Location: Peterborough
(44.3091°N, 78.3197°W)
Time: 17:13:15
(UTC-04:00)

Transit 2A - Pass Details

Date: 25 March 2023
Orbit: 591 x 964 km, 66.7° (Epoch: 04 June)

Event Time Altitude Azimuth Distance (km) Brightness Sun altitude
Rises 05:44:03 0° 193° (SSW) 3,158 - -15.5°
Exits shadow 05:44:32 - 192° (SSW) 2,976 8.8 -15.4°
Reaches altitude 10° 05:46:22 10° 188° (S) 2,296 8.2 -15.1°
Maximum altitude 05:51:27 50° 114° (ESE) 1,049 7.0 -14.2°
Drops below altitude 10° 05:57:07 10° 41° (NE) 2,552 9.6 -13.3°
Sets 05:59:48 0° 36° (NE) 3,544 10.3 -12.8°
